29/10/20
Time         Wind Dir  Wind Gust   Humidity       Temp   Tot Rain Wind Chill Heat Index  Dew Point   Barom SL Temp Out H Temp Out L  DailyRain   HourRain   24HrRain   RainRate   Wind Run   Deg Heat   Deg Cool  MonthRain
                          km/hr          %         C         mm         C         C         C         mb         C         C         mm         mm         mm      mm/hr         km         C         C         mm
0:00               36        0.0         79       16.7      315.2       16.7       18.9       13.0     1022.0       16.7       16.7        0.0        0.0        0.0       0.00      111.6       2.56       0.24       33.8
0:02               36        0.0         79       16.6      315.2       16.6       18.9       13.0     1022.1       16.7       16.6        0.0        0.0        0.0       0.00        0.3       0.01       0.00       33.8
0:04               36        0.0         79       16.6      315.2       16.6       18.9       13.0     1022.1       16.7       16.6        0.0        0.0        0.0       0.00        0.6       0.01       0.00       33.8
0:06               36        0.0         79       16.6      315.2       16.6       18.9       13.0     1022.0       16.7       16.6        0.0        0.0        0.0       0.00        0.8       0.01       0.00       33.8
0:08               36        0.0         79       16.6      315.2       16.6       18.9       13.0     1021.9       16.7       16.6        0.0        0.0        0.0       0.00        1.1       0.01       0.00       33.8
0:10               36        0.0         80       16.6      315.2       16.6       19.0       13.2     1022.0       16.7       16.6        0.0        0.0        0.0       0.00        1.4       0.01       0.00       33.8
0:12               36        0.0         80       16.6      315.2       16.6       18.9       13.1     1022.0       16.7       16.6        0.0        0.0        0.0       0.00        1.6       0.01       0.00       33.8
0:14               36        0.0         80       16.6      315.2       16.6       18.9       13.1     1022.0       16.7       16.6        0.0        0.0        0.0       0.00        1.8       0.01       0.00       33.8
0:16               36        0.0         80       16.6      315.2       16.6       18.9       13.1     1022.0       16.7       16.6        0.0        0.0        0.0       0.00        2.1       0.03       0.00       33.8
0:18               36        0.0         80       16.5      315.2       16.5       18.8       13.0     1021.9       16.7       16.5        0.0        0.0        0.0       0.00        2.4       0.03       0.00       33.8
0:20               36        0.0         80       16.5      315.2       16.5       18.8       13.0     1021.9       16.7       16.5        0.0        0.0        0.0       0.00        2.7       0.03       0.00       33.8
0:22               36        0.0         80       16.5      315.2       16.5       18.8       13.0     1021.9       16.7       16.5        0.0        0.0        0.0       0.00        2.9       0.03       0.00       33.8
0:24               36        0.0         80       16.5      315.2       16.5       18.8       13.0     1021.9       16.7       16.5        0.0        0.0        0.0       0.00        3.2       0.03       0.00       33.8
0:26               36        0.0         80       16.4      315.2       16.4       18.8       13.0     1021.9       16.7       16.4        0.0        0.0        0.0       0.00        3.5       0.03       0.00       33.8
0:28               36        0.0         80       16.4      315.2       16.4       18.8       13.0     1021.9       16.7       16.4        0.0        0.0        0.0       0.00        3.7       0.03       0.00       33.8
0:30               36        0.0         80       16.4      315.2       16.4       18.8       13.0     1021.9       16.7       16.4        0.0        0.0        0.0       0.00        3.9       0.03       0.00       33.8
0:32               36        0.0         80       16.4      315.2       16.4       18.8       13.0     1021.9       16.7       16.4        0.0        0.0        0.0       0.00        4.1       0.05       0.00       33.8
0:34               36        0.0         80       16.4      315.2       16.4       18.8       13.0     1021.9       16.7       16.4        0.0        0.0        0.0       0.00        4.3       0.05       0.00       33.8
0:36               36        0.0         80       16.4      315.2       16.4       18.7       12.9     1021.9       16.7       16.4        0.0        0.0        0.0       0.00        4.7       0.05       0.00       33.8
0:38               36        0.0         81       16.4      315.2       16.4       18.9       13.2     1021.9       16.7       16.4        0.0        0.0        0.0       0.00        4.9       0.05       0.00       33.8
0:40               36        0.0         81       16.4      315.2       16.4       18.9       13.2     1022.0       16.7       16.4        0.0        0.0        0.0       0.00        5.2       0.05       0.00       33.8
0:42               36        0.0         81       16.4      315.2       16.4       18.9       13.2     1022.0       16.7       16.4        0.0        0.0        0.0       0.00        5.5       0.05       0.00       33.8
0:44               36        0.0         81       16.4      315.2       16.4       18.8       13.1     1021.9       16.7       16.4        0.0        0.0        0.0       0.00        5.8       0.05       0.00       33.8
0:46               35        0.0         80       16.4      315.2       16.4       18.8       13.0     1022.0       16.7       16.4        0.0        0.0        0.0       0.00        6.1       0.06       0.00       33.8
0:48               35        0.0         80       16.4      315.2       16.4       18.7       12.9     1022.0       16.7       16.4        0.0        0.0        0.0       0.00        6.3       0.06       0.00       33.8
0:50               36        0.0         80       16.4      315.2       16.4       18.7       12.9     1022.0       16.7       16.4        0.0        0.0        0.0       0.00        6.6       0.06       0.00       33.8
0:52               35        0.0         81       16.4      315.2       16.4       18.8       13.1     1022.0       16.7       16.4        0.0        0.0        0.0       0.00        6.9       0.06       0.00       33.8
0:54               35        0.0         81       16.3      315.2       16.3       18.8       13.1     1022.0       16.7       16.3        0.0        0.0        0.0       0.00        7.1       0.06       0.00       33.8
0:56               35        0.0         80       16.3      315.2       16.3       18.7       12.9     1022.0       16.7       16.3        0.0        0.0        0.0       0.00        7.3       0.06       0.00       33.8
0:58               35        0.0         80       16.3      315.2       16.3       18.6       12.8     1022.0       16.7       16.3        0.0        0.0        0.0       0.00        7.6       0.06       0.00       33.8
1:00               35        0.0         81       16.3      315.2       16.3       18.7       13.0     1022.0       16.7       16.3        0.0        0.0        0.0       0.00        7.8       0.06       0.00       33.8
1:02               35        0.0         81       16.3      315.2       16.3       18.7       13.0     1022.0       16.7       16.3        0.0        0.0        0.0       0.00        8.1       0.08       0.00       33.8
1:04               35        0.0         81       16.2      315.2       16.2       18.6       13.0     1022.0       16.7       16.2        0.0        0.0        0.0       0.00        8.3       0.08       0.00       33.8
1:06               35        0.0         81       16.2      315.2       16.2       18.6       12.9     1022.0       16.7       16.2        0.0        0.0        0.0       0.00        8.6       0.08       0.00       33.8
1:07               34        0.0         81       16.2      315.2       16.2       18.6       12.9     1022.1       16.7       16.2        0.0        0.0        0.0       0.00        8.9       0.08       0.00       33.8
1:10               34        0.0         81       16.2      315.2       16.2       18.6       12.9     1022.1       16.7       16.2        0.0        0.0        0.0       0.00        9.2       0.08       0.00       33.8
1:12               34        0.0         81       16.2      315.2       16.2       18.6       12.9     1022.0       16.7       16.1        0.0        0.0        0.0       0.00        9.4       0.08       0.00       33.8
1:13               34        0.0         81       16.1      315.2       16.1       18.5       12.9     1022.2       16.7       16.1        0.0        0.0        0.0       0.00        9.7       0.08       0.00       33.8
1:16               34        0.0         81       16.1      315.2       16.1       18.5       12.9     1022.1       16.7       16.1        0.0        0.0        0.0       0.00       10.0       0.10       0.00       33.8
1:18               34        0.0         81       16.1      315.2       16.1       18.5       12.9     1022.0       16.7       16.1        0.0        0.0        0.0       0.00       10.2       0.10       0.00       33.8
1:20               34        0.0         81       16.1      315.2       16.1       18.5       12.8     1022.1       16.7       16.1        0.0        0.0        0.0       0.00       10.5       0.10       0.00       33.8
1:22               34        0.0         82       16.1      315.2       16.1       18.6       13.0     1022.1       16.7       16.1        0.0        0.0        0.0       0.00       10.7       0.10       0.00       33.8
1:24               34        0.0         81       16.0      315.2       16.0       18.4       12.7     1022.1       16.7       16.0        0.0        0.0        0.0       0.00       11.0       0.10       0.00       33.8
1:26               34        0.0         81       16.0      315.2       16.0       18.4       12.7     1022.0       16.7       16.0        0.0        0.0        0.0       0.00       11.3       0.10       0.00       33.8
1:28               34        0.0         82       15.9      315.2       15.9       18.4       12.9     1022.0       16.7       15.9        0.0        0.0        0.0       0.00       11.6       0.10       0.00       33.8
1:30               34        0.0         82       15.9      315.2       15.9       18.4       12.8     1022.0       16.7       15.9        0.0        0.0        0.0       0.00       11.8       0.10       0.00       33.8
1:32               34        0.0         82       15.9      315.2       15.9       18.4       12.8     1021.9       16.7       15.9        0.0        0.0        0.0       0.00       12.1       0.12       0.00       33.8
1:34               34        0.0         82       15.8      315.2       15.8       18.3       12.8     1022.0       16.7       15.8        0.0        0.0        0.0       0.00       12.2       0.12       0.00       33.8
1:36               34        0.0         82       15.8      315.2       15.8       18.3       12.8     1022.0       16.7       15.8        0.0        0.0        0.0       0.00       12.5       0.12       0.00       33.8
1:38               34        0.0         82       15.8      315.2       15.8       18.3       12.7     1021.9       16.7       15.8        0.0        0.0        0.0       0.00       12.9       0.12       0.00       33.8
1:40               34        0.0         82       15.8      315.2       15.8       18.3       12.7     1022.0       16.7       15.8        0.0        0.0        0.0       0.00       13.2       0.12       0.00       33.8
1:42               34        0.0         82       15.7      315.2       15.7       18.2       12.7     1022.0       16.7       15.7        0.0        0.0        0.0       0.00       13.4       0.12       0.00       33.8
1:44               34        0.0         83       15.8      315.2       15.8       18.4       12.9     1022.0       16.7       15.7        0.0        0.0        0.0       0.00       13.6       0.12       0.00       33.8
1:45               34        0.0         83       15.7      315.2       15.7       18.3       12.8     1022.0       16.7       15.7        0.0        0.0        0.0       0.00       13.8       0.14       0.00       33.8
1:48               34        0.0         83       15.7      315.2       15.7       18.3       12.8     1021.9       16.7       15.7        0.0        0.0        0.0       0.00       14.1       0.14       0.00       33.8
1:50               34        0.0         83       15.7      315.2       15.7       18.3       12.8     1022.0       16.7       15.7        0.0        0.0        0.0       0.00       14.3       0.14       0.00       33.8
1:52               34        0.0         83       15.7      315.2       15.7       18.3       12.8     1022.0       16.7       15.7        0.0        0.0        0.0       0.00       14.5       0.14       0.00       33.8
1:54               34        0.0         83       15.7      315.2       15.7       18.3       12.8     1021.9       16.7       15.7        0.0        0.0        0.0       0.00       14.7       0.14       0.00       33.8
1:56               34        0.0         83       15.7      315.2       15.7       18.2       12.8     1022.0       16.7       15.7        0.0        0.0        0.0       0.00       14.9       0.14       0.00       33.8
1:58               34        0.0         83       15.7      315.2       15.7       18.2       12.8     1021.9       16.7       15.7        0.0        0.0        0.0       0.00       15.2       0.14       0.00       33.8
2:00               34        0.0         83       15.6      315.2       15.6       18.2       12.7     1022.0       16.7       15.6        0.0        0.0        0.0       0.00       15.4       0.14       0.00       33.8
2:02               34        0.0         83       15.6      315.2       15.6       18.2       12.7     1021.9       16.7       15.6        0.0        0.0        0.0       0.00       15.7       0.17       0.00       33.8
2:04               34        0.0         83       15.6      315.2       15.6       18.1       12.7     1021.9       16.7       15.6        0.0        0.0        0.0       0.00       15.9       0.17       0.00       33.8
2:06               34        0.0         83       15.6      315.2       15.6       18.1       12.7     1021.9       16.7       15.6        0.0        0.0        0.0       0.00       16.2       0.17       0.00       33.8
2:08               34        0.0         83       15.6      315.2       15.6       18.1       12.7     1021.9       16.7       15.6        0.0        0.0        0.0       0.00       16.4       0.17       0.00       33.8
2:10               34        0.0         83       15.6      315.2       15.6       18.1       12.7     1021.9       16.7       15.6        0.0        0.0        0.0       0.00       16.6       0.17       0.00       33.8
2:12               34        0.0         84       15.6      315.2       15.6       18.2       12.9     1021.8       16.7       15.6        0.0        0.0        0.0       0.00       16.8       0.17       0.00       33.8
2:14               34        0.0         84       15.6      315.2       15.6       18.2       12.9     1021.9       16.7       15.6        0.0        0.0        0.0       0.00       17.1       0.17       0.00       33.8
2:16               34        0.0         84       15.6      315.2       15.6       18.2       12.9     1021.9       16.7       15.6        0.0        0.0        0.0       0.00       17.4       0.20       0.00       33.8
2:18               34        0.0         84       15.6      315.2       15.6       18.2       12.9     1022.0       16.7       15.6        0.0        0.0        0.0       0.00       17.6       0.20       0.00       33.8
2:20               34        0.0         84       15.6      315.2       15.6       18.2       12.9     1021.9       16.7       15.6        0.0        0.0        0.0       0.00       17.9       0.20       0.00       33.8
2:22               34        0.0         84       15.6      315.2       15.6       18.2       12.9     1022.0       16.7       15.6        0.0        0.0        0.0       0.00       18.1       0.20       0.00       33.8
2:24               34        0.0         83       15.6      315.2       15.6       18.1       12.7     1021.9       16.7       15.6        0.0        0.0        0.0       0.00       18.3       0.20       0.00       33.8
2:26               34        0.0         84       15.6      315.2       15.6       18.2       12.9     1021.9       16.7       15.6        0.0        0.0        0.0       0.00       18.5       0.20       0.00       33.8
2:28               34        0.0         84       15.5      315.2       15.5       18.2       12.8     1021.9       16.7       15.5        0.0        0.0        0.0       0.00       18.8       0.20       0.00       33.8
2:30               34        0.0         84       15.5      315.2       15.5       18.2       12.8     1021.9       16.7       15.5        0.0        0.0        0.0       0.00       19.0       0.20       0.00       33.8
2:32               34        0.0         84       15.6      315.2       15.6       18.2       12.9     1021.8       16.7       15.5        0.0        0.0        0.0       0.00       19.3       0.22       0.00       33.8
2:34               34        0.0         84       15.5      315.2       15.5       18.2       12.8     1021.8       16.7       15.5        0.0        0.0        0.0       0.00       19.4       0.22       0.00       33.8
2:35               34        0.0         84       15.5      315.2       15.5       18.2       12.8     1021.8       16.7       15.5        0.0        0.0        0.0       0.00       19.7       0.22       0.00       33.8
2:38               34        0.0         84       15.5      315.2       15.5       18.2       12.8     1021.8       16.7       15.5        0.0        0.0        0.0       0.00       20.0       0.22       0.00       33.8
2:40               34        0.0         84       15.5      315.2       15.5       18.2       12.8     1021.8       16.7       15.5        0.0        0.0        0.0       0.00       20.2       0.22       0.00       33.8
2:42               34        0.0         84       15.5      315.2       15.5       18.2       12.8     1021.8       16.7       15.5        0.0        0.0        0.0       0.00       20.4       0.22       0.00       33.8
2:44               34        0.0         84       15.5      315.2       15.5       18.2       12.8     1021.7       16.7       15.4        0.0        0.0        0.0       0.00       20.6       0.22       0.00       33.8
2:46               34        0.0         84       15.4      315.2       15.4       18.1       12.8     1021.7       16.7       15.4        0.0        0.0        0.0       0.00       20.8       0.25       0.00       33.8
2:47               34        0.0         84       15.4      315.2       15.4       18.1       12.8     1021.7       16.7       15.4        0.0        0.0        0.0       0.00       21.1       0.25       0.00       33.8
2:50               34        0.0         84       15.4      315.2       15.4       18.1       12.8     1021.7       16.7       15.4        0.0        0.0        0.0       0.00       21.3       0.25       0.00       33.8
2:52               34        0.0         84       15.4      315.2       15.4       18.1       12.8     1021.6       16.7       15.4        0.0        0.0        0.0       0.00       21.5       0.25       0.00       33.8
2:54               34        0.0         84       15.4      315.2       15.4       18.1       12.8     1021.7       16.7       15.4        0.0        0.0        0.0       0.00       21.7       0.25       0.00       33.8
2:56               34        0.0         84       15.4      315.2       15.4       18.1       12.8     1021.6       16.7       15.4        0.0        0.0        0.0       0.00       22.1       0.25       0.00       33.8
2:58               34        0.0         84       15.4      315.2       15.4       18.0       12.7     1021.6       16.7       15.4        0.0        0.0        0.0       0.00       22.3       0.25       0.00       33.8
3:00               34        0.0         84       15.4      315.2       15.4       18.0       12.7     1021.6       16.7       15.4        0.0        0.0        0.0       0.00       22.5       0.25       0.00       33.8
3:02               34        0.0         84       15.4      315.2       15.4       18.0       12.7     1021.6       16.7       15.4        0.0        0.0        0.0       0.00       22.8       0.27       0.00       33.8
3:04               34        0.0         84       15.4      315.2       15.4       18.0       12.7     1021.6       16.7       15.4        0.0        0.0        0.0       0.00       23.1       0.27       0.00       33.8
3:06               33        0.0         84       15.4      315.2       15.4       18.0       12.7     1021.6       16.7       15.4        0.0        0.0        0.0       0.00       23.4       0.27       0.00       33.8
3:08               33        0.0         84       15.4      315.2       15.4       18.0       12.7     1021.6       16.7       15.4        0.0        0.0        0.0       0.00       23.6       0.27       0.00       33.8
3:10               33        0.0         84       15.4      315.2       15.4       18.0       12.7     1021.6       16.7       15.4        0.0        0.0        0.0       0.00       24.0       0.27       0.00       33.8
3:12               33        0.0         84       15.4      315.2       15.4       18.0       12.7     1021.6       16.7       15.4        0.0        0.0        0.0       0.00       24.3       0.27       0.00       33.8
3:14               33        0.0         84       15.4      315.2       15.4       18.0       12.7     1021.6       16.7       15.4        0.0        0.0        0.0       0.00       24.6       0.27       0.00       33.8
3:16               33        0.0         84       15.4      315.2       15.4       18.0       12.7     1021.6       16.7       15.4        0.0        0.0        0.0       0.00       25.0       0.30       0.00       33.8
3:18               33        0.0         84       15.3      315.2       15.3       18.0       12.6     1021.8       16.7       15.3        0.0        0.0        0.0       0.00       25.3       0.30       0.00       33.8
3:20               33        0.0         84       15.3      315.2       15.3       18.0       12.6     1021.7       16.7       15.3        0.0        0.0        0.0       0.00       25.6       0.30       0.00       33.8
3:22               32        0.0         84       15.3      315.2       15.3       18.0       12.6     1021.7       16.7       15.3        0.0        0.0        0.0       0.00       26.0       0.30       0.00       33.8
3:24               32        0.0         84       15.3      315.2       15.3       18.0       12.6     1021.7       16.7       15.3        0.0        0.0        0.0       0.00       26.3       0.30       0.00       33.8
3:26               32        0.0         84       15.3      315.2       15.3       18.0       12.6     1021.7       16.7       15.3        0.0        0.0        0.0       0.00       26.6       0.30       0.00       33.8
3:28               32        0.0         85       15.3      315.2       15.3       18.0       12.8     1021.7       16.7       15.3        0.0        0.0        0.0       0.00       26.9       0.30       0.00       33.8
3:30               32        0.0         85       15.3      315.2       15.3       18.0       12.8     1021.6       16.7       15.3        0.0        0.0        0.0       0.00       27.3       0.30       0.00       33.8
3:32               31        0.0         85       15.3      315.2       15.3       18.0       12.8     1021.7       16.7       15.3        0.0        0.0        0.0       0.00       27.6       0.33       0.00       33.8
3:34               30        0.0         85       15.3      315.2       15.3       18.0       12.8     1021.8       16.7       15.3        0.0        0.0        0.0       0.00       28.0       0.33       0.00       33.8
3:36               30        0.0         85       15.2      315.2       15.2       18.0       12.7     1021.8       16.7       15.2        0.0        0.0        0.0       0.00       28.2       0.33       0.00       33.8
3:38               30        0.0         85       15.2      315.2       15.2       18.0       12.7     1021.8       16.7       15.2        0.0        0.0        0.0       0.00       28.5       0.33       0.00       33.8
3:40               30        0.0         85       15.2      315.2       15.2       18.0       12.7     1021.7       16.7       15.2        0.0        0.0        0.0       0.00       28.9       0.33       0.00       33.8
3:42               30        0.0         85       15.2      315.2       15.2       17.9       12.7     1021.7       16.7       15.2        0.0        0.0        0.0       0.00       29.2       0.33       0.00       33.8
3:44               30        0.0         85       15.1      315.2       15.1       17.8       12.6     1021.8       16.7       15.1        0.0        0.0        0.0       0.00       29.5       0.33       0.00       33.8
3:46               30        0.0         85       15.1      315.2       15.1       17.8       12.6     1021.7       16.7       15.1        0.0        0.0        0.0       0.00       29.8       0.36       0.00       33.8
3:48               30        0.0         85       15.1      315.2       15.1       17.8       12.6     1021.6       16.7       15.1        0.0        0.0        0.0       0.00       30.1       0.36       0.00       33.8
3:50               30        0.0         85       15.1      315.2       15.1       17.8       12.6     1021.7       16.7       15.1        0.0        0.0        0.0       0.00       30.4       0.36       0.00       33.8
3:52               30        0.0         85       15.1      315.2       15.1       17.8       12.6     1021.7       16.7       15.1        0.0        0.0        0.0       0.00       30.6       0.36       0.00       33.8
3:54               30        0.0         85       15.0      315.2       15.0       17.7       12.5     1021.7       16.7       15.0        0.0        0.0        0.0       0.00       31.0       0.36       0.00       33.8
3:56               30        0.0         85       14.9      315.2       14.9       17.7       12.4     1021.7       16.7       14.9        0.0        0.0        0.0       0.00       31.2       0.36       0.00       33.8
3:58               30        0.0         85       14.9      315.2       14.9       17.7       12.4     1021.7       16.7       14.9        0.0        0.0        0.0       0.00       31.6       0.36       0.00       33.8
4:00               30        0.0         85       14.9      315.2       14.9       17.6       12.4     1021.7       16.7       14.9        0.0        0.0        0.0       0.00       31.9       0.36       0.00       33.8
4:02               30        0.0         86       14.9      315.2       14.9       17.7       12.6     1021.7       16.7       14.9        0.0        0.0        0.0       0.00       32.1       0.39       0.00       33.8
4:04               30        0.0         86       14.9      315.2       14.9       17.7       12.6     1021.7       16.7       14.9        0.0        0.0        0.0       0.00       32.5       0.39       0.00       33.8
4:06               30        0.0         86       14.8      315.2       14.8       17.6       12.5     1021.7       16.7       14.8        0.0        0.0        0.0       0.00       32.8       0.39       0.00       33.8
4:07               29        0.0         86       14.8      315.2       14.8       17.6       12.5     1021.8       16.7       14.8        0.0        0.0        0.0       0.00       33.2       0.39       0.00       33.8
4:10               29        0.0         86       14.8      315.2       14.8       17.6       12.5     1021.8       16.7       14.8        0.0        0.0        0.0       0.00       33.4       0.39       0.00       33.8
4:12               29        0.0         86       14.8      315.2       14.8       17.6       12.5     1021.8       16.7       14.8        0.0        0.0        0.0       0.00       33.7       0.39       0.00       33.8
4:14               28        0.0         86       14.8      315.2       14.8       17.6       12.5     1021.7       16.7       14.8        0.0        0.0        0.0       0.00       34.1       0.39       0.00       33.8
4:16               29        0.0         86       14.8      315.2       14.8       17.6       12.5     1021.7       16.7       14.7        0.0        0.0        0.0       0.00       34.4       0.43       0.00       33.8
4:18               29        0.0         86       14.7      315.2       14.7       17.5       12.4     1021.7       16.7       14.7        0.0        0.0        0.0       0.00       34.6       0.43       0.00       33.8
4:20               28        0.0         86       14.7      315.2       14.7       17.5       12.4     1021.8       16.7       14.7        0.0        0.0        0.0       0.00       34.9       0.43       0.00       33.8
4:21               28        0.0         86       14.7      315.2       14.7       17.5       12.4     1021.8       16.7       14.7        0.0        0.0        0.0       0.00       35.3       0.43       0.00       33.8
4:24               30        0.0         86       14.7      315.2       14.7       17.5       12.4     1021.8       16.7       14.7        0.0        0.0        0.0       0.00       35.7       0.43       0.00       33.8
4:26               31        0.0         86       14.7      315.2       14.7       17.5       12.4     1021.8       16.7       14.7        0.0        0.0        0.0       0.00       36.0       0.43       0.00       33.8
4:28               31        0.0         86       14.7      315.2       14.7       17.5       12.4     1021.8       16.7       14.7        0.0        0.0        0.0       0.00       36.4       0.43       0.00       33.8
4:30               31        0.0         86       14.7      315.2       14.7       17.5       12.4     1021.8       16.7       14.7        0.0        0.0        0.0       0.00       36.7       0.43       0.00       33.8
4:32               31        0.0         86       14.7      315.2       14.7       17.5       12.4     1021.8       16.7       14.7        0.0        0.0        0.0       0.00       37.1       0.46       0.00       33.8
4:34               30        0.0         86       14.8      315.2       14.8       17.6       12.5     1021.8       16.7       14.7        0.0        0.0        0.0       0.00       37.6       0.46       0.00       33.8
4:36               30        0.0         86       14.7      315.2       14.7       17.5       12.4     1021.8       16.7       14.7        0.0        0.0        0.0       0.00       38.0       0.46       0.00       33.8
4:38               30        0.0         86       14.8      315.2       14.8       17.6       12.5     1021.8       16.7       14.7        0.0        0.0        0.0       0.00       38.5       0.46       0.00       33.8
4:40               33        0.0         86       14.8      315.2       14.8       17.6       12.5     1021.7       16.7       14.7        0.0        0.0        0.0       0.00       39.0       0.46       0.00       33.8
4:42               37        0.0         86       14.8      315.2       14.8       17.6       12.5     1021.8       16.7       14.7        0.0        0.0        0.0       0.00       39.7       0.46       0.00       33.8
4:44               37        0.0         85       14.8      315.2       14.8       17.6       12.3     1021.7       16.7       14.7        0.0        0.0        0.0       0.00       40.2       0.46       0.00       33.8
4:46               41        0.0         86       14.8      315.2       14.8       17.6       12.5     1021.7       16.7       14.7        0.0        0.0        0.0       0.00       40.7       0.49       0.00       33.8
4:48               34        0.0         86       14.8      315.2       14.8       17.6       12.5     1021.6       16.7       14.7        0.0        0.0        0.0       0.00       41.1       0.49       0.00       33.8
4:50               34        0.0         85       14.9      315.2       14.9       17.6       12.4     1021.7       16.7       14.7        0.0        0.0        0.0       0.00       41.7       0.49       0.00       33.8
4:52               34        0.0         85       14.9      315.2       14.9       17.6       12.4     1021.7       16.7       14.7        0.0        0.0        0.0       0.00       42.2       0.49       0.00       33.8
4:54               33        0.0         85       14.9      315.2       14.9       17.6       12.4     1021.7       16.7       14.7        0.0        0.0        0.0       0.00       42.6       0.49       0.00       33.8
4:56               32        0.0         85       14.9      315.2       14.9       17.6       12.4     1021.7       16.7       14.7        0.0        0.0        0.0       0.00       43.0       0.49       0.00       33.8
4:58               32        0.0         85       14.9      315.2       14.9       17.6       12.4     1021.6       16.7       14.7        0.0        0.0        0.0       0.00       43.6       0.49       0.00       33.8
5:00               35        0.0         85       14.9      315.2       14.9       17.6       12.4     1021.7       16.7       14.7        0.0        0.0        0.0       0.00       44.1       0.49       0.00       33.8
5:01               23        0.0         85       14.9      315.2       14.9       17.6       12.4     1021.7       16.7       14.7        0.0        0.0        0.0       0.00       44.5       0.53       0.00       33.8
5:04               24        0.0         85       14.9      315.2       14.9       17.6       12.4     1021.6       16.7       14.7        0.0        0.0        0.0       0.00       44.9       0.53       0.00       33.8
5:06               26        0.0         85       14.9      315.2       14.9       17.6       12.4     1021.6       16.7       14.7        0.0        0.0        0.0       0.00       45.4       0.53       0.00       33.8
5:08               26        0.0         85       14.9      315.2       14.9       17.6       12.4     1021.7       16.7       14.7        0.0        0.0        0.0       0.00       45.9       0.53       0.00       33.8
5:10               28        0.0         85       14.9      315.2       14.9       17.6       12.4     1021.6       16.7       14.7        0.0        0.0        0.0       0.00       46.4       0.53       0.00       33.8
5:12               28        0.0         85       14.9      315.2       14.9       17.6       12.4     1021.7       16.7       14.7        0.0        0.0        0.0       0.00       46.9       0.53       0.00       33.8
5:14               33        0.0         85       14.9      315.2       14.9       17.6       12.4     1021.8       16.7       14.7        0.0        0.0        0.0       0.00       47.5       0.53       0.00       33.8
5:16               34        0.0         85       14.9      315.2       14.9       17.6       12.4     1021.6       16.7       14.7        0.0        0.0        0.0       0.00       48.2       0.56       0.00       33.8
5:18               30        0.0         85       14.9      315.2       14.9       17.7       12.4     1021.7       16.7       14.7        0.0        0.0        0.0       0.00       48.8       0.56       0.00       33.8
5:20               36        0.0         85       14.9      315.2       14.9       17.7       12.4     1021.7       16.7       14.7        0.0        0.0        0.0       0.00       49.5       0.56       0.00       33.8
5:22               38        0.0         85       14.9      315.2       14.9       17.6       12.4     1021.7       16.7       14.7        0.0        0.0        0.0       0.00       50.2       0.56       0.00       33.8
5:24               42        0.0         85       14.9      315.2       14.9       17.7       12.4     1021.7       16.7       14.7        0.0        0.0        0.0       0.00       50.9       0.56       0.00       33.8
5:26               40        0.0         84       14.9      315.2       14.9       17.5       12.2     1021.7       16.7       14.7        0.0        0.0        0.0       0.00       51.4       0.56       0.00       33.8
5:28               26        0.0         84       14.9      315.2       14.9       17.5       12.2     1021.8       16.7       14.7        0.0        0.0        0.0       0.00       52.0       0.56       0.00       33.8
5:30               32        0.0         84       14.9      315.2       14.9       17.5       12.2     1021.8       16.7       14.7        0.0        0.0        0.0       0.00       52.7       0.56       0.00       33.8
5:32               31        0.0         84       14.8      315.2       14.8       17.5       12.2     1021.8       16.7       14.7        0.0        0.0        0.0       0.00       53.3       0.59       0.00       33.8
5:34               36        0.0         84       14.8      315.2       14.8       17.5       12.2     1021.8       16.7       14.7        0.0        0.0        0.0       0.00       53.8       0.59       0.00       33.8
5:36               39        0.0         85       14.8      315.2       14.8       17.5       12.3     1021.8       16.7       14.7        0.0        0.0        0.0       0.00       54.4       0.59       0.00       33.8
5:38               34        0.0         85       14.7      315.2       14.7       17.5       12.2     1021.9       16.7       14.7        0.0        0.0        0.0       0.00       54.9       0.59       0.00       33.8
5:40               36        0.0         84       14.7      315.2       14.7       17.4       12.0     1022.0       16.7       14.7        0.0        0.0        0.0       0.00       55.4       0.59       0.00       33.8
5:42               38        0.0         84       14.7      315.2       14.7       17.3       12.0     1021.9       16.7       14.7        0.0        0.0        0.0       0.00       56.1       0.59       0.00       33.8
5:44               30        0.0         85       14.6      315.2       14.6       17.3       12.1     1021.9       16.7       14.6        0.0        0.0        0.0       0.00       56.5       0.59       0.00       33.8
5:46               46        0.0         85       14.6      315.2       14.6       17.3       12.1     1021.9       16.7       14.6        0.0        0.0        0.0       0.00       57.2       0.63       0.00       33.8
5:48               38        0.0         85       14.6      315.2       14.6       17.3       12.1     1021.9       16.7       14.6        0.0        0.0        0.0       0.00       57.7       0.63       0.00       33.8
5:50               29        0.0         85       14.6      315.2       14.6       17.3       12.1     1021.9       16.7       14.6        0.0        0.0        0.0       0.00       58.4       0.63       0.00       33.8
5:52               37        0.0         85       14.5      315.2       14.5       17.2       12.0     1021.9       16.7       14.5        0.0        0.0        0.0       0.00       58.8       0.63       0.00       33.8
5:54               36        0.0         85       14.4      315.2       14.4       17.2       12.0     1021.9       16.7       14.4        0.0        0.0        0.0       0.00       59.3       0.63       0.00       33.8
5:56               31        0.0         86       14.4      315.2       14.4       17.3       12.1     1021.9       16.7       14.4        0.0        0.0        0.0       0.00       59.8       0.63       0.00       33.8
5:58               37        0.0         85       14.4      315.2       14.4       17.2       12.0     1022.0       16.7       14.4        0.0        0.0        0.0       0.00       60.4       0.63       0.00       33.8
6:00               29        0.0         86       14.4      315.2       14.4       17.3       12.1     1022.0       16.7       14.4        0.0        0.0        0.0       0.00       61.1       0.63       0.00       33.8
6:02               40        0.0         86       14.4      315.2       14.4       17.3       12.1     1022.0       16.7       14.4        0.0        0.0        0.0       0.00       61.9       0.66       0.00       33.8
6:03               27        0.0         86       14.4      315.2       14.4       17.2       12.1     1022.1       16.7       14.4        0.0        0.0        0.0       0.00       62.5       0.66       0.00       33.8
6:06               36        0.0         86       14.4      315.2       14.4       17.3       12.1     1022.0       16.7       14.4        0.0        0.0        0.0       0.00       63.3       0.66       0.00       33.8
6:08               33        0.0         86       14.4      315.2       14.4       17.3       12.1     1022.1       16.7       14.4        0.0        0.0        0.0       0.00       64.0       0.66       0.00       33.8
6:10               32        0.0         86       14.4      315.2       14.4       17.3       12.1     1022.1       16.7       14.4        0.0        0.0        0.0       0.00       64.7       0.66       0.00       33.8
6:12               36        0.0         86       14.4      315.2       14.4       17.3       12.1     1022.1       16.7       14.4        0.0        0.0        0.0       0.00       65.3       0.66       0.00       33.8
6:14               43        0.0         86       14.4      315.2       14.4       17.2       12.1     1022.1       16.7       14.4        0.0        0.0        0.0       0.00       65.8       0.66       0.00       33.8
6:16               22        0.0         86       14.4      315.2       14.4       17.2       12.1     1022.2       16.7       14.4        0.0        0.0        0.0       0.00       66.4       0.70       0.00       33.8
6:18               38        0.0         86       14.4      315.2       14.4       17.2       12.1     1022.1       16.7       14.4        0.0        0.0        0.0       0.00       66.8       0.70       0.00       33.8
6:20               34        0.0         86       14.4      315.2       14.4       17.2       12.1     1022.1       16.7       14.3        0.0        0.0        0.0       0.00       67.5       0.70       0.00       33.8
6:22               33        0.0         86       14.3      315.2       14.3       17.1       12.0     1022.1       16.7       14.3        0.0        0.0        0.0       0.00       68.1       0.70       0.00       33.8
6:24               46        0.0         86       14.3      315.2       14.3       17.1       12.0     1022.2       16.7       14.3        0.0        0.0        0.0       0.00       68.7       0.70       0.00       33.8
6:26               34        0.0         86       14.3      315.2       14.3       17.1       12.0     1022.2       16.7       14.3        0.0        0.0        0.0       0.00       69.2       0.70       0.00       33.8
6:28               37        0.0         86       14.3      315.2       14.3       17.1       12.0     1022.2       16.7       14.3        0.0        0.0        0.0       0.00       69.8       0.70       0.00       33.8
6:30               33        0.0         86       14.3      315.2       14.3       17.1       12.0     1022.2       16.7       14.3        0.0        0.0        0.0       0.00       70.5       0.70       0.00       33.8
6:32               34        0.0         86       14.3      315.2       14.3       17.1       12.0     1022.3       16.7       14.3        0.0        0.0        0.0       0.00       71.1       0.74       0.00       33.8
6:34               41        0.0         86       14.2      315.2       14.2       17.0       11.9     1022.4       16.7       14.2        0.0        0.0        0.0       0.00       71.6       0.74       0.00       33.8
6:36               34        0.0         86       14.2      315.2       14.2       17.0       11.9     1022.3       16.7       14.2        0.0        0.0        0.0       0.00       72.2       0.74       0.00       33.8
6:38               34        0.0         86       14.2      315.2       14.2       17.0       11.9     1022.4       16.7       14.2        0.0        0.0        0.0       0.00       72.6       0.74       0.00       33.8
6:40               34        0.0         86       14.1      315.2       14.1       16.9       11.8     1022.3       16.7       14.1        0.0        0.0        0.0       0.00       73.2       0.74       0.00       33.8
6:42               32        0.0         86       14.1      315.2       14.1       16.9       11.8     1022.4       16.7       14.1        0.0        0.0        0.0       0.00       73.8       0.74       0.00       33.8
6:44               29        0.0         86       14.0      315.2       14.0       16.8       11.7     1022.4       16.7       14.0        0.0        0.0        0.0       0.00       74.1       0.74       0.00       33.8
6:46               43        0.0         86       14.0      315.2       14.0       16.8       11.7     1022.4       16.7       14.0        0.0        0.0        0.0       0.00       74.9       0.78       0.00       33.8
6:48               34        0.0         87       14.0      315.2       14.0       16.9       11.9     1022.4       16.7       14.0        0.0        0.0        0.0       0.00       75.4       0.78       0.00       33.8
6:50               32        0.0         87       14.0      315.2       14.0       16.9       11.9     1022.4       16.7       14.0        0.0        0.0        0.0       0.00       75.9       0.78       0.00       33.8
6:52               52        0.0         87       13.9      315.2       13.9       16.8       11.8     1022.4       16.7       13.9        0.0        0.0        0.0       0.00       76.6       0.78       0.00       33.8
6:54               34        0.0         87       13.9      315.2       13.9       16.8       11.8     1022.5       16.7       13.9        0.0        0.0        0.0       0.00       77.1       0.78       0.00       33.8
6:56               42        0.0         87       13.9      315.2       13.9       16.8       11.8     1022.5       16.7       13.9        0.0        0.0        0.0       0.00       77.6       0.78       0.00       33.8
6:58               36        0.0         87       13.9      315.2       13.9       16.8       11.8     1022.5       16.7       13.9        0.0        0.0        0.0       0.00       78.0       0.78       0.00       33.8
7:00               42        0.0         87       13.9      315.2       13.9       16.8       11.8     1022.5       16.7       13.9        0.0        0.0        0.0       0.00       78.4       0.78       0.00       33.8
7:02               38        0.0         87       13.9      315.2       13.9       16.8       11.8     1022.5       16.7       13.9        0.0        0.0        0.0       0.00       79.0       0.82       0.00       33.8
7:04               32        0.0         87       13.9      315.2       13.9       16.8       11.8     1022.5       16.7       13.9        0.0        0.0        0.0       0.00       79.4       0.82       0.00       33.8
7:06               34        0.0         87       13.9      315.2       13.9       16.8       11.8     1022.6       16.7       13.9        0.0        0.0        0.0       0.00       79.9       0.82       0.00       33.8
7:08               33        0.0         87       13.9      315.2       13.9       16.8       11.8     1022.5       16.7       13.9        0.0        0.0        0.0       0.00       80.3       0.82       0.00       33.8
7:10               26        0.0         87       13.9      315.2       13.9       16.8       11.8     1022.5       16.7       13.9        0.0        0.0        0.0       0.00       80.9       0.82       0.00       33.8
7:12               25        0.0         87       13.9      315.2       13.9       16.8       11.8     1022.5       16.7       13.8        0.0        0.0        0.0       0.00       81.3       0.82       0.00       33.8
7:14               34        0.0         87       13.9      315.2       13.9       16.8       11.8     1022.6       16.7       13.8        0.0        0.0        0.0       0.00       81.9       0.82       0.00       33.8
7:16               42        0.0         87       13.9      315.2       13.9       16.8       11.8     1022.6       16.7       13.8        0.0        0.0        0.0       0.00       82.6       0.87       0.00       33.8
7:18               31        0.0         87       13.9      315.2       13.9       16.8       11.8     1022.6       16.7       13.8        0.0        0.0        0.0       0.00       83.2       0.87       0.00       33.8
7:20               36        0.0         87       13.9      315.2       13.9       16.8       11.8     1022.6       16.7       13.8        0.0        0.0        0.0       0.00       83.8       0.87       0.00       33.8
7:22               32        0.0         87       13.9      315.2       13.9       16.8       11.8     1022.6       16.7       13.8        0.0        0.0        0.0       0.00       84.4       0.87       0.00       33.8
7:24               13        0.0         87       13.9      315.2       13.9       16.8       11.8     1022.6       16.7       13.8        0.0        0.0        0.0       0.00       85.1       0.87       0.00       33.8
7:26               30        0.0         87       14.0      315.2       14.0       16.9       11.9     1022.7       16.7       13.8        0.0        0.0        0.0       0.00       85.7       0.87       0.00       33.8
7:28               31        0.0         87       14.0      315.2       14.0       16.9       11.9     1022.7       16.7       13.8        0.0        0.0        0.0       0.00       86.4       0.87       0.00       33.8
7:30               25        0.0         87       14.0      315.2       14.0       16.9       11.9     1022.7       16.7       13.8        0.0        0.0        0.0       0.00       86.9       0.87       0.00       33.8
7:32               40        0.0         87       14.0      315.2       14.0       16.9       11.9     1022.9       16.7       13.8        0.0        0.0        0.0       0.00       87.5       0.91       0.00       33.8
7:34               31        0.0         87       14.0      315.2       14.0       16.9       11.9     1022.9       16.7       13.8        0.0        0.0        0.0       0.00       88.1       0.91       0.00       33.8
7:36               34        0.0         87       14.1      315.2       14.1       16.9       11.9     1022.9       16.7       13.8        0.0        0.0        0.0       0.00       88.8       0.91       0.00       33.8
7:38               38        0.0         87       14.1      315.2       14.1       16.9       11.9     1023.0       16.7       13.8        0.0        0.0        0.0       0.00       89.4       0.91       0.00       33.8
7:40               40        0.0         87       14.1      315.2       14.1       17.0       12.0     1022.9       16.7       13.8        0.0        0.0        0.0       0.00       90.0       0.91       0.00       33.8
7:42               39        0.0         87       14.2      315.2       14.2       17.1       12.0     1022.9       16.7       13.8        0.0        0.0        0.0       0.00       90.7       0.91       0.00       33.8
7:44               23        0.0         87       14.2      315.2       14.2       17.1       12.0     1023.0       16.7       13.8        0.0        0.0        0.0       0.00       91.5       0.91       0.00       33.8
7:46               32        0.0         87       14.2      315.2       14.2       17.1       12.1     1023.0       16.7       13.8        0.0        0.0        0.0       0.00       92.1       0.95       0.00       33.8
7:48               57        0.0         87       14.3      315.2       14.3       17.2       12.1     1023.1       16.7       13.8        0.0        0.0        0.0       0.00       92.7       0.95       0.00       33.8
7:50               47        0.0         87       14.3      315.2       14.3       17.2       12.2     1023.0       16.7       13.8        0.0        0.0        0.0       0.00       93.6       0.95       0.00       33.8
7:52               56        0.0         86       14.4      315.2       14.4       17.2       12.1     1023.1       16.7       13.8        0.0        0.0        0.0       0.00       94.2       0.95       0.00       33.8
7:54               42        0.0         86       14.4      315.2       14.4       17.2       12.1     1023.0       16.7       13.8        0.0        0.0        0.0       0.00       94.8       0.95       0.00       33.8
7:56               40        0.0         86       14.4      315.2       14.4       17.3       12.1     1023.0       16.7       13.8        0.0        0.0        0.0       0.00       95.5       0.95       0.00       33.8
7:58               47        0.0         86       14.5      315.2       14.5       17.3       12.2     1023.1       16.7       13.8        0.0        0.0        0.0       0.00       96.2       0.95       0.00       33.8
8:00               46        0.0         86       14.5      315.2       14.5       17.3       12.2     1023.1       16.7       13.8        0.0        0.0        0.0       0.00       96.9       0.95       0.00       33.8
8:02               51        0.0         86       14.6      315.2       14.6       17.4       12.2     1023.1       16.7       13.8        0.0        0.0        0.0       0.00       97.5       0.98       0.00       33.8
8:04               49        0.0         86       14.6      315.2       14.6       17.4       12.3     1023.2       16.7       13.8        0.0        0.0        0.0       0.00       98.0       0.98       0.00       33.8
8:06               46        0.0         86       14.7      315.2       14.7       17.5       12.4     1023.2       16.7       13.8        0.0        0.0        0.0       0.00       98.8       0.98       0.00       33.8
8:08               32        0.0         85       14.7      315.2       14.7       17.5       12.2     1023.3       16.7       13.8        0.0        0.0        0.0       0.00       99.4       0.98       0.00       33.8
8:10               38        0.0         85       14.8      315.2       14.8       17.5       12.3     1023.3       16.7       13.8        0.0        0.0        0.0       0.00      100.0       0.98       0.00       33.8
8:12               42        0.0         85       14.8      315.2       14.8       17.6       12.3     1023.4       16.7       13.8        0.0        0.0        0.0       0.00      100.6       0.98       0.00       33.8
8:14               42        0.0         85       14.8      315.2       14.8       17.6       12.3     1023.4       16.7       13.8        0.0        0.0        0.0       0.00      101.3       0.98       0.00       33.8
8:16               47        0.0         85       14.9      315.2       14.9       17.6       12.4     1023.4       16.7       13.8        0.0        0.0        0.0       0.00      101.8       1.02       0.00       33.8
8:18               40        0.0         85       14.9      315.2       14.9       17.6       12.4     1023.4       16.7       13.8        0.0        0.0        0.0       0.00      102.5       1.02       0.00       33.8
8:20               54        0.0         85       14.9      315.2       14.9       17.7       12.4     1023.5       16.7       13.8        0.0        0.0        0.0       0.00      103.3       1.02       0.00       33.8
8:22               32        0.0         84       15.0      315.2       15.0       17.7       12.3     1023.4       16.7       13.8        0.0        0.0        0.0       0.00      103.9       1.02       0.00       33.8
8:24               37        0.0         84       15.1      315.2       15.1       17.7       12.4     1023.4       16.7       13.8        0.0        0.0        0.0       0.00      104.5       1.02       0.00       33.8
8:26               40        0.0         84       15.1      315.2       15.1       17.8       12.4     1023.5       16.7       13.8        0.0        0.0        0.0       0.00      105.0       1.02       0.00       33.8
8:28               42        0.0         84       15.2      315.2       15.2       17.8       12.5     1023.5       16.7       13.8        0.0        0.0        0.0       0.00      105.6       1.02       0.00       33.8